Location: Unspecified
(51.0000°N, 12.0000°E)
Time: 08:46:36
(UTC+02:00)

OTV 5 (USA 277) - Pass Details

Date: 27 April 2019
Orbit: 310 x 325 km, 54.5° (Epoch: 08 May)

Event Time Altitude Azimuth Distance (km) Brightness Sun altitude
Rises 23:54:53 0° 287° (WNW) 2,038 ? -23.0°
Reaches altitude 10° 23:56:55 10° 296° (WNW) 1,208 ? -23.1°
Enters shadow 23:57:42 17° 303° (WNW) 909 ? -23.2°
